Wind_Speed
69 58 64 62 62 58 53 52 55 57 57 56 59 53 50 51 53 60 66 63 72 67 60 70 66 52 52 51 46 40 42 40 30 32 31 20 22 22 28 36 35 30 21 17
68 56 67 69 59 57 54 55 60 60 58 55 50 45 49 55 60 63 63 66 60 71 68 63 53 53 53 44 41 38 39 33 29 31 23 17 18 20 27 30 29 21 15 17
67 66 71 63 59 57 58 57 57 53 51 43 43 47 53 58 59 58 61 53 62 61 65 57 54 52 44 39 37 36 33 29 29 26 17 14 13 19 24 24 22 21 22 20
69 69 67 61 59 57 53 53 53 50 47 44 47 52 56 56 60 60 58 53 52 52 52 56 53 44 41 35 32 31 27 28 27 20 13 12 11 18 23 24 22 21 23 20
60 60 58 63 57 57 54 53 50 47 45 49 52 56 59 60 65 61 53 42 46 48 54 50 46 40 31 30 30 24 25 26 21 17 12 9 8 16 21 21 22 19 18 18
62 62 66 61 60 52 59 48 50 52 51 51 60 59 60 53 57 49 40 50 45 43 39 45 34 32 27 28 24 23 25 25 16 15 9 2 8 17 20 28 31 21 13 16
60 59 59 60 57 54 56 55 54 53 53 61 63 53 57 46 41 37 33 32 30 34 34 40 30 24 23 22 21 24 23 22 13 14 9 1 10 18 23 26 26 20 17 11
65 64 58 59 59 62 61 62 57 55 57 57 53 38 48 38 36 30 28 24 25 26 30 29 25 22 17 19 20 23 22 20 13 7 9 2 9 18 22 25 26 20 14 11
67 63 63 59 64 65 62 56 61 59 57 55 52 44 38 34 29 29 19 18 16 22 20 19 21 17 16 19 18 20 20 19 12 3 10 1 10 15 22 29 27 18 16 9
78 74 74 77 75 67 61 65 65 58 53 51 51 44 34 28 24 22 17 13 14 19 19 15 18 15 16 15 16 18 19 17 10 5 8 0 9 13 23 28 25 23 18 13
80 82 84 84 71 69 70 65 62 58 54 46 45 31 23 27 25 22 12 12 15 18 22 16 18 14 13 12 16 18 18 15 9 8 8 4 10 15 23 23 18 18 18 16
72 79 84 79 75 76 74 71 70 63 56 57 56 40 25 27 24 16 11 9 12 17 20 18 19 13 11 13 16 18 18 14 6 10 11 6 10 16 24 21 20 19 17 18
85 74 74 74 78 81 74 67 62 61 57 51 36 30 28 25 17 11 6 7 10 15 19 24 17 16 14 14 16 18 18 12 4 13 11 8 10 12 22 18 24 21 15 20
84 77 65 59 54 56 56 53 47 42 33 29 30 33 29 25 18 8 6 5 10 15 21 23 21 17 17 15 18 17 16 12 2 15 12 10 10 11 17 21 16 20 26 22
84 73 65 59 58 56 49 43 37 32 35 29 39 35 29 24 19 8 8 3 8 14 17 21 25 18 16 16 18 15 16 14 2 11 16 10 6 10 12 18 18 15 23 22
83 73 71 68 62 55 48 43 35 36 42 43 43 33 29 27 20 11 8 4 7 11 16 19 24 19 15 16 16 17 15 14 5 11 15 12 6 3 10 13 16 15 15 20
85 80 78 68 63 60 51 41 38 36 42 40 37 34 33 26 20 11 7 6 9 9 14 17 19 24 17 14 13 15 16 15 11 12 16 15 9 8 1 8 11 9 8 8
87 83 78 68 72 67 43 44 40 40 41 40 39 37 34 26 22 13 6 8 9 8 11 13 16 22 19 13 12 11 13 12 12 8 16 15 13 10 9 3 1 7 5 3
88 85 80 76 74 62 50 45 39 40 40 42 40 41 38 31 23 18 11 11 10 8 8 11 15 18 21 14 9 11 11 12 9 9 0 14 15 12 12 12 11 7 2 5
96 89 87 77 79 64 54 51 46 47 44 44 44 44 40 32 25 25 14 11 10 10 7 7 13 16 17 18 10 8 8 8 10 6 4 2 11 15 13 14 14 13 11 6
99 96 89 83 83 68 61 60 56 50 38 47 47 47 45 35 33 28 15 13 13 11 9 8 9 12 15 16 13 8 6 4 7 6 4 2 4 8 9 15 16 14 15 16
101 98 94 89 82 79 73 71 67 65 53 51 50 51 49 41 33 27 22 16 15 11 12 9 8 10 12 13 15 11 6 4 2 4 3 3 4 4 6 10 11 12 15 15
101 101 98 93 88 83 80 78 70 63 58 55 52 56 52 46 37 29 22 19 17 14 15 13 9 9 10 12 13 14 10 5 3 1 3 4 3 6 6 6 9 13 13 15
99 100 101 95 89 87 85 81 71 68 66 62 54 55 54 51 46 35 27 22 21 19 16 18 13 10 9 10 12 11 12 10 6 5 4 4 5 5 6 9 9 9 10 13
96 98 103 102 94 87 84 81 78 74 69 66 63 59 55 51 47 41 35 28 26 24 20 22 19 13 11 10 12 11 10 11 9 7 7 6 7 6 7 8 10 11 11 11
95 96 103 103 97 88 84 84 83 78 69 68 65 62 58 52 50 46 40 34 31 28 26 24 25 18 15 13 13 13 12 10 11 8 7 8 11 10 8 9 10 10 11 12
Wind_Direction
248 250 251 250 253 258 261 264 267 268 269 271 272 275 280 281 279 282 286 299 301 311 312 312 312 308 311 310 314 311 311 315 315 315 314 300 289 303 306 316 317 318 320 321
252 249 249 250 256 259 262 263 265 268 269 272 272 276 276 273 276 285 294 298 311 312 314 312 313 315 312 310 311 309 314 317 321 316 308 291 293 304 316 320 328 329 327 322
248 247 252 256 259 260 258 261 262 266 270 271 273 274 275 278 282 292 299 314 313 314 311 312 312 310 311 310 309 311 315 322 324 313 301 289 296 307 316 324 344 353 355 332
241 247 253 256 258 261 264 261 263 264 269 270 273 272 277 278 286 296 307 312 308 307 306 304 309 309 310 309 312 312 321 327 323 309 291 277 294 324 322 324 338 344 345 344
238 240 240 245 247 250 248 255 260 266 268 266 271 270 275 279 283 296 307 302 302 299 298 305 305 305 310 308 310 319 324 330 322 315 278 270 327 332 334 341 335 337 341 349
234 236 244 249 247 246 246 251 253 256 261 267 267 272 275 288 296 306 301 302 305 302 306 305 307 308 317 310 317 320 323 329 321 320 270 264 340 332 346 350 340 335 346 343
238 236 237 239 241 243 246 246 249 254 259 261 266 275 279 299 306 298 291 294 291 298 304 300 306 316 313 324 323 324 331 334 327 320 231 283 3 343 350 348 344 354 345 348
228 232 234 235 236 240 241 245 250 255 255 258 267 288 293 293 298 281 278 279 285 308 301 305 318 310 330 332 324 332 335 343 337 318 199 206 2 331 342 355 356 348 354 353
226 229 231 232 232 236 238 239 244 245 253 261 271 286 292 288 279 271 277 279 301 326 315 316 314 334 355 335 335 336 343 347 341 239 199 139 8 347 1 6 2 360 8 24
226 225 229 229 230 232 235 237 241 249 260 265 270 280 287 261 258 263 267 306 321 336 344 323 345 354 358 345 343 344 348 345 332 243 204 199 336 352 12 6 15 33 36 47
228 227 232 231 233 237 240 247 250 256 261 267 273 270 253 248 249 253 274 318 343 347 2 347 355 1 9 351 350 351 351 345 314 208 193 111 2 357 13 17 33 35 61 59
232 229 231 233 233 237 240 243 247 255 263 265 270 267 230 236 239 245 258 335 346 358 6 5 5 12 13 358 354 353 358 350 308 206 166 126 42 13 27 40 41 34 47 65
226 228 234 234 236 239 242 251 258 262 265 269 262 222 217 223 227 238 257 320 10 1 16 17 13 21 25 8 358 355 5 357 352 190 168 122 69 15 41 44 40 38 69 83
227 228 231 242 247 245 244 244 246 251 244 234 212 209 211 217 220 230 248 300 30 10 18 17 14 11 31 17 4 359 12 10 110 191 183 134 94 47 35 46 50 60 85 95
225 225 227 231 237 239 237 238 233 225 219 207 214 202 209 214 217 231 249 300 19 17 18 19 16 8 32 27 15 14 18 17 60 198 193 158 125 85 48 45 54 60 100 119
223 220 222 226 229 231 237 238 230 222 220 202 213 198 205 214 212 213 246 312 1 8 19 19 18 13 25 34 18 21 21 25 23 201 204 178 177 151 72 64 46 64 111 110
222 222 222 222 229 229 224 231 235 223 222 215 213 203 207 207 213 210 237 311 323 356 22 17 16 20 23 32 17 20 23 24 19 204 212 199 191 229 163 83 67 55 79 118
221 223 224 218 225 227 215 223 228 228 218 220 217 208 204 197 212 212 234 278 302 343 17 14 16 25 23 26 27 37 24 23 22 18 209 223 222 242 225 248 18 62 101 70
219 222 223 219 226 225 217 219 224 231 221 223 217 220 198 200 201 216 213 262 293 325 358 8 13 22 24 19 30 36 36 28 21 19 299 218 228 246 243 251 262 275 305 116
215 217 220 217 225 222 214 215 215 223 222 215 218 222 214 201 183 221 203 245 286 302 327 359 5 16 17 20 15 28 34 44 17 1 4 247 226 230 246 247 251 259 268 245
213 215 217 218 221 216 215 216 213 213 217 217 213 219 222 207 210 217 208 234 267 286 317 340 346 5 8 14 11 6 25 70 32 1 329 305 232 231 241 241 257 261 242 237
210 212 217 217 216 211 212 214 209 206 207 215 208 215 225 222 212 209 211 225 251 274 285 308 329 337 1 360 6 6 3 35 25 349 355 308 275 245 241 241 243 241 234 237
209 209 215 218 218 211 212 215 213 207 201 211 209 212 219 226 220 213 211 222 235 258 279 287 303 313 336 345 349 8 357 350 331 278 294 328 311 272 260 243 240 240 244 243
211 207 212 215 216 216 213 216 212 210 207 206 210 215 218 222 226 218 217 216 235 253 268 279 284 294 301 325 326 349 358 350 323 254 248 281 298 307 273 263 259 251 240 240
210 205 209 214 214 215 214 216 217 214 209 209 207 212 220 224 229 224 221 216 229 244 257 271 276 283 281 298 311 318 344 351 344 323 256 256 277 275 285 275 270 259 253 248
212 206 206 212 213 213 213 215 219 219 213 209 211 215 217 223 234 234 222 221 227 239 253 262 270 274 275 280 292 306 313 330 340 331 286 267 265 264 274 278 276 268 261 258
Height
10731 10752 10744 10746 10750 10758 10766 10768 10766 10766 10769 10773 10770 10772 10768 10767 10764 10761 10756 10749 10741 10733 10729 10719 10711 10703 10697 10690 10683 10678 10671 10665 10659 10652 10646 10641 10637 10634 10628 10620 10613 10606 10600 10596
10723 10741 10724 10726 10745 10750 10755 10757 10750 10754 10756 10762 10760 10762 10762 10761 10759 10755 10748 10738 10731 10722 10715 10711 10703 10696 10688 10681 10677 10671 10664 10659 10654 10647 10641 10637 10634 10630 10625 10618 10609 10602 10597 10592
10711 10711 10708 10726 10732 10738 10740 10742 10738 10742 10748 10752 10750 10752 10753 10753 10749 10745 10739 10729 10718 10712 10704 10701 10697 10689 10681 10676 10671 10665 10659 10654 10649 10642 10637 10634 10632 10629 10623 10616 10608 10601 10596 10590
10695 10700 10702 10712 10720 10722 10728 10722 10729 10733 10740 10740 10742 10743 10744 10745 10742 10737 10732 10722 10714 10706 10701 10696 10689 10682 10677 10672 10665 10660 10655 10651 10645 10639 10635 10632 10631 10627 10620 10613 10607 10601 10595 10590
10692 10684 10687 10696 10705 10708 10711 10718 10722 10727 10730 10731 10734 10736 10738 10737 10736 10730 10724 10717 10708 10702 10697 10691 10683 10677 10672 10666 10660 10656 10652 10648 10642 10636 10633 10631 10629 10625 10618 10612 10606 10600 10594 10590
10669 10669 10675 10689 10690 10702 10691 10712 10714 10717 10723 10729 10720 10728 10731 10729 10727 10721 10715 10709 10702 10695 10690 10684 10678 10672 10667 10660 10655 10652 10649 10644 10639 10634 10632 10630 10628 10623 10618 10610 10603 10597 10594 10589
10652 10661 10665 10671 10680 10688 10690 10697 10705 10711 10717 10715 10714 10719 10723 10720 10720 10714 10708 10702 10699 10690 10686 10681 10674 10668 10663 10656 10653 10650 10646 10641 10636 10633 10631 10630 10628 10623 10617 10609 10603 10596 10593 10589
10635 10643 10655 10662 10670 10673 10679 10684 10695 10702 10703 10707 10710 10709 10716 10711 10712 10710 10705 10700 10696 10687 10682 10675 10669 10664 10658 10654 10651 10647 10643 10638 10634 10631 10631 10630 10628 10623 10617 10609 10601 10595 10592 10589
10627 10638 10642 10650 10651 10655 10669 10684 10679 10687 10694 10701 10703 10700 10706 10704 10705 10704 10700 10696 10691 10684 10675 10670 10666 10660 10655 10651 10648 10645 10641 10636 10633 10632 10632 10631 10629 10624 10618 10609 10601 10596 10591 10588
10610 10618 10620 10622 10630 10647 10664 10663 10670 10682 10689 10690 10692 10694 10698 10696 10699 10698 10696 10691 10687 10680 10673 10668 10662 10657 10652 10649 10646 10643 10640 10636 10633 10632 10633 10633 10630 10625 10618 10611 10604 10597 10593 10590
10584 10600 10594 10601 10636 10647 10647 10656 10663 10670 10676 10680 10684 10687 10691 10690 10692 10692 10692 10688 10682 10678 10670 10664 10659 10654 10649 10648 10645 10642 10638 10635 10633 10632 10634 10634 10630 10626 10620 10613 10608 10602 10600 10597
10582 10579 10584 10612 10618 10623 10633 10644 10651 10662 10668 10673 10678 10681 10683 10684 10686 10687 10688 10683 10680 10675 10668 10660 10656 10652 10648 10647 10644 10641 10638 10633 10631 10631 10635 10635 10633 10629 10623 10617 10613 10610 10607 10605
10548 10575 10581 10596 10605 10613 10633 10645 10653 10655 10661 10666 10671 10673 10676 10680 10680 10682 10682 10680 10677 10673 10666 10660 10656 10651 10647 10646 10644 10640 10637 10633 10631 10631 10635 10636 10636 10631 10628 10623 10620 10617 10613 10612
10542 10562 10585 10600 10613 10616 10626 10633 10640 10645 10651 10656 10662 10666 10672 10675 10676 10677 10678 10678 10672 10670 10664 10659 10654 10650 10647 10645 10643 10640 10636 10634 10632 10633 10636 10638 10638 10635 10631 10629 10628 10625 10622 10620
10534 10560 10578 10586 10594 10604 10616 10624 10630 10637 10641 10651 10649 10660 10667 10671 10672 10672 10675 10673 10670 10667 10663 10658 10653 10649 10646 10645 10642 10640 10637 10635 10633 10634 10637 10639 10640 10638 10636 10633 10633 10632 10629 10628
10525 10551 10560 10566 10578 10593 10606 10616 10624 10629 10631 10638 10642 10657 10663 10666 10668 10668 10669 10668 10667 10666 10661 10657 10653 10649 10645 10644 10643 10641 10638 10636 10634 10635 10638 10640 10641 10641 10641 10638 10636 10637 10636 10635
10517 10531 10541 10563 10573 10578 10592 10610 10618 10626 10629 10635 10641 10649 10655 10661 10662 10663 10664 10663 10665 10664 10659 10657 10654 10649 10645 10643 10642 10641 10639 10637 10635 10635 10637 10640 10642 10643 10643 10642 10642 10641 10641 10641
10505 10516 10532 10555 10550 10560 10600 10600 10612 10617 10624 10630 10635 10642 10650 10656 10657 10658 10659 10661 10662 10662 10658 10657 10654 10649 10645 10643 10642 10641 10640 10639 10637 10635 10637 10639 10642 10643 10644 10644 10644 10645 10645 10645
10494 10503 10520 10533 10543 10567 10586 10593 10605 10610 10618 10623 10630 10632 10644 10649 10654 10655 10657 10658 10658 10658 10658 10656 10653 10648 10646 10644 10643 10641 10640 10640 10639 10637 10637 10638 10640 10643 10644 10645 10646 10647 10647 10647
10474 10485 10497 10522 10529 10557 10575 10581 10591 10596 10605 10614 10620 10625 10633 10644 10651 10650 10654 10655 10654 10655 10656 10654 10652 10648 10647 10645 10643 10642 10640 10639 10640 10639 10639 10638 10639 10641 10643 10644 10646 10647 10648 10649
10456 10470 10484 10502 10514 10547 10559 10563 10572 10586 10604 10602 10612 10617 10622 10635 10639 10643 10648 10650 10651 10652 10651 10652 10650 10648 10646 10644 10643 10642 10640 10639 10639 10640 10639 10639 10639 10639 10640 10642 10643 10645 10647 10648
10437 10460 10470 10484 10505 10519 10532 10538 10550 10555 10575 10586 10601 10609 10613 10621 10632 10638 10644 10646 10646 10647 10647 10649 10649 10647 10645 10644 10643 10642 10640 10639 10638 10639 10639 10638 10639 10639 10639 10640 10641 10642 10644 10647
10421 10444 10457 10470 10486 10504 10513 10518 10541 10561 10570 10577 10588 10597 10604 10610 10621 10629 10635 10639 10639 10641 10642 10644 10647 10646 10644 10643 10642 10641 10640 10639 10637 10637 10637 10637 10637 10637 10638 10638 10639 10641 10641 10642
10401 10431 10443 10454 10471 10486 10497 10511 10535 10547 10558 10567 10580 10589 10595 10601 10609 10618 10626 10632 10634 10635 10637 10638 10642 10644 10643 10642 10641 10640 10639 10638 10637 10635 10635 10635 10636 10636 10636 10636 10636 10637 10639 10640
10383 10413 10426 10436 10453 10473 10493 10507 10520 10532 10550 10562 10570 10578 10587 10593 10600 10610 10617 10624 10627 10629 10632 10632 10635 10638 10639 10639 10639 10639 10639 10637 10636 10635 10634 10634 10634 10634 10634 10634 10634 10635 10635 10636
10373 10396 10411 10427 10443 10462 10482 10492 10505 10523 10540 10551 10561 10570 10578 10586 10590 10595 10605 10615 10620 10622 10624 10627 10628 10633 10634 10636 10637 10637 10637 10636 10635 10634 10633 10632 10632 10632 10632 10632 10632 10632 10632 10633